When you browse on this site, cookies collect data to enhance your experience and personalize the content and advertising you see.
Visit our Privacy Policy to learn more. By continuing to use the site, you agree to this use of cookies and data.
  • In Austria
  • List of Countries
  • For 7 days
  • Water Temperature
  • Satellite Maps
  • Weather Map
  • News
  • Weather Widgets
  • user-avatar
    Login

    Hourly Weather Ronchamp

    Today, 19 February, Tuesday

    Time Temperature Precipitation Wind Pressure Humidity
    00:00 +5°C° 0 mm 2 mps 728 mmHg 77%
    01:00 +6°C° 0 mm 1 mps 728 mmHg 80%
    02:00 +5°C° 0 mm 1 mps 728 mmHg 84%
    03:00 +5°C° 0 mm 1 mps 728 mmHg 87%
    04:00 +5°C° 0 mm 1 mps 728 mmHg 88%
    05:00 +6°C° 0 mm 1 mps 728 mmHg 88%
    06:00 +5°C° 0 mm 0 mps 728 mmHg 90%
    07:00 +6°C° 0 mm 1 mps 729 mmHg 88%
    08:00 +7°C° 0 mm 1 mps 729 mmHg 87%
    09:00 +6°C° 0 mm 2 mps 729 mmHg 86%
    10:00 +8°C° 0 mm 2 mps 729 mmHg 82%
    11:00 +9°C° 0 mm 2 mps 729 mmHg 79%
    12:00 +10°C° 0 mm 2 mps 729 mmHg 76%
    13:00 +10°C° 0 mm 2 mps 729 mmHg 76%
    14:00 +10°C° 0 mm 2 mps 729 mmHg 77%
    15:00 +11°C° 0 mm 1 mps 729 mmHg 77%
    16:00 +10°C° 0 mm 1 mps 729 mmHg 82%
    17:00 +9°C° 0 mm 1 mps 729 mmHg 87%
    18:00 +7°C° 0 mm 0 mps 729 mmHg 92%
    19:00 +7°C° 0 mm 0 mps 729 mmHg 92%
    20:00 +6°C° 0 mm 0 mps 729 mmHg 93%
    21:00 +6°C° 0 mm 0 mps 730 mmHg 93%
    22:00 +6°C° 0 mm 0 mps 730 mmHg 93%
    23:00 +5°C° 0 mm 0 mps 730 mmHg 93%

    Tomorrow, 20 February, Wednesday

    Time Temperature Precipitation Wind Pressure Humidity
    00:00 +5°C° 0 mm 0 mps 730 mmHg 93%
    01:00 +4°C° 0 mm 0 mps 730 mmHg 93%
    02:00 +4°C° 0 mm 0 mps 730 mmHg 93%
    03:00 +4°C° 0 mm 0 mps 729 mmHg 93%
    04:00 +4°C° 0 mm 0 mps 729 mmHg 92%
    05:00 +4°C° 0 mm 0 mps 730 mmHg 92%
    06:00 +4°C° 0 mm 0 mps 730 mmHg 92%
    07:00 +5°C° 0 mm 0 mps 730 mmHg 86%
    08:00 +7°C° 0 mm 0 mps 731 mmHg 81%
    09:00 +8°C° 0 mm 0 mps 731 mmHg 76%
    10:00 +10°C° 0 mm 0 mps 731 mmHg 70%
    11:00 +11°C° 0 mm 0 mps 731 mmHg 65%
    12:00 +13°C° 0 mm 0 mps 731 mmHg 59%
    13:00 +12°C° 0 mm 0 mps 731 mmHg 59%
    14:00 +13°C° 0 mm 1 mps 731 mmHg 59%
    15:00 +13°C° 0 mm 1 mps 731 mmHg 58%
    16:00 +10°C° 0 mm 0 mps 731 mmHg 66%
    17:00 +9°C° 0 mm 0 mps 731 mmHg 73%
    18:00 +7°C° 0 mm 0 mps 731 mmHg 80%
    19:00 +7°C° 0 mm 0 mps 732 mmHg 82%
    20:00 +6°C° 0 mm 0 mps 732 mmHg 83%
    21:00 +6°C° 0 mm 0 mps 732 mmHg 85%
    22:00 +6°C° 0 mm 0 mps 732 mmHg 85%
    23:00 +5°C° 0 mm 0 mps 732 mmHg 85%

    Day after tomorrow, 21 February, Thursday

    Time Temperature Precipitation Wind Pressure Humidity
    00:00 +5°C° 0 mm 0 mps 732 mmHg 86%
    01:00 +5°C° 0 mm 0 mps 733 mmHg 85%
    02:00 +5°C° 0 mm 0 mps 733 mmHg 85%
    03:00 +4°C° 0 mm 0 mps 733 mmHg 85%
    04:00 +4°C° 0 mm 0 mps 733 mmHg 85%
    05:00 +4°C° 0 mm 0 mps 733 mmHg 85%
    06:00 +4°C° 0 mm 0 mps 733 mmHg 85%
    07:00 +6°C° 0 mm 0 mps 734 mmHg 79%
    08:00 +7°C° 0 mm 0 mps 734 mmHg 73%
    09:00 +9°C° 0 mm 0 mps 735 mmHg 67%
    10:00 +10°C° 0 mm 0 mps 735 mmHg 63%
    11:00 +12°C° 0 mm 0 mps 735 mmHg 58%
    12:00 +14°C° 0 mm 1 mps 735 mmHg 54%
    13:00 +14°C° 0 mm 1 mps 735 mmHg 55%
    14:00 +14°C° 0 mm 1 mps 735 mmHg 57%
    15:00 +14°C° 0 mm 1 mps 735 mmHg 58%
    16:00 +12°C° 0 mm 1 mps 735 mmHg 66%
    17:00 +10°C° 0 mm 1 mps 735 mmHg 74%
    18:00 +7°C° 0 mm 0 mps 735 mmHg 82%
    19:00 +7°C° 0 mm 0 mps 736 mmHg 83%
    20:00 +7°C° 0 mm 0 mps 736 mmHg 85%
    21:00 +6°C° 0 mm 0 mps 737 mmHg 86%
    22:00 +6°C° 0 mm 0 mps 737 mmHg 86%
    23:00 +6°C° 0 mm 0 mps 737 mmHg 87%

    22 February, Friday

    Time Temperature Precipitation Wind Pressure Humidity
    00:00 +7°C° 0 mm 1 mps 737 mmHg 87%
    01:00 +6°C° 0 mm 1 mps 737 mmHg 87%
    02:00 +6°C° 0 mm 1 mps 737 mmHg 88%
    03:00 +6°C° 0 mm 1 mps 737 mmHg 88%
    04:00 +6°C° 0 mm 1 mps 738 mmHg 89%
    05:00 +6°C° 0 mm 1 mps 738 mmHg 89%
    06:00 +5°C° 0 mm 1 mps 738 mmHg 90%
    07:00 +7°C° 0 mm 1 mps 738 mmHg 85%
    08:00 +8°C° 0 mm 1 mps 738 mmHg 79%
    09:00 +10°C° 0 mm 1 mps 738 mmHg 74%
    10:00 +10°C° 0 mm 2 mps 738 mmHg 68%
    11:00 +13°C° 0 mm 2 mps 738 mmHg 63%
    12:00 +14°C° 0 mm 2 mps 738 mmHg 57%
    13:00 +14°C° 0 mm 2 mps 738 mmHg 57%
    14:00 +14°C° 0 mm 2 mps 737 mmHg 58%
    15:00 +14°C° 0 mm 2 mps 737 mmHg 58%
    16:00 +13°C° 0 mm 2 mps 737 mmHg 66%
    17:00 +10°C° 0 mm 2 mps 737 mmHg 74%
    18:00 +8°C° 0 mm 2 mps 737 mmHg 82%
    19:00 +7°C° 0 mm 2 mps 737 mmHg 85%
    20:00 +7°C° 0 mm 2 mps 737 mmHg 87%
    21:00 +6°C° 0 mm 2 mps 737 mmHg 90%
    22:00 +6°C° 0 mm 2 mps 737 mmHg 91%
    23:00 +6°C° 0 mm 2 mps 737 mmHg 91%

    23 February, Saturday

    Time Temperature Precipitation Wind Pressure Humidity
    00:00 +5°C° 0 mm 2 mps 737 mmHg 92%
    01:00 +5°C° 0 mm 2 mps 737 mmHg 91%
    02:00 +5°C° 0 mm 2 mps 736 mmHg 91%
    03:00 +4°C° 0 mm 3 mps 736 mmHg 90%
    04:00 +5°C° 0 mm 2 mps 736 mmHg 90%
    05:00 +4°C° 0 mm 2 mps 736 mmHg 90%
    06:00 +4°C° 0 mm 2 mps 736 mmHg 89%
    07:00 +5°C° 0 mm 2 mps 736 mmHg 83%
    08:00 +7°C° 0 mm 2 mps 736 mmHg 76%
    09:00 +8°C° 0 mm 3 mps 737 mmHg 69%
    10:00 +10°C° 0 mm 2 mps 736 mmHg 64%
    11:00 +12°C° 0 mm 2 mps 736 mmHg 58%
    12:00 +14°C° 0 mm 2 mps 736 mmHg 52%
    13:00 +14°C° 0 mm 2 mps 736 mmHg 52%
    14:00 +14°C° 0 mm 2 mps 736 mmHg 52%
    15:00 +15°C° 0 mm 2 mps 736 mmHg 51%
    16:00 +13°C° 0 mm 2 mps 736 mmHg 59%
    17:00 +10°C° 0 mm 2 mps 736 mmHg 67%
    18:00 +9°C° 0 mm 1 mps 736 mmHg 75%
    19:00 +7°C° 0 mm 2 mps 736 mmHg 78%
    20:00 +7°C° 0 mm 2 mps 736 mmHg 80%
    21:00 +6°C° 0 mm 2 mps 736 mmHg 83%
    22:00 +6°C° 0 mm 2 mps 736 mmHg 84%
    23:00 +5°C° 0 mm 2 mps 735 mmHg 86%

    24 February, Sunday

    Time Temperature Precipitation Wind Pressure Humidity
    00:00 +5°C° 0 mm 2 mps 735 mmHg 87%
    01:00 +5°C° 0 mm 2 mps 735 mmHg 86%
    02:00 +5°C° 0 mm 2 mps 735 mmHg 85%
    03:00 +4°C° 0 mm 2 mps 735 mmHg 84%
    04:00 +4°C° 0 mm 2 mps 735 mmHg 83%
    05:00 +4°C° 0 mm 2 mps 735 mmHg 81%
    06:00 +4°C° 0 mm 2 mps 735 mmHg 80%
    07:00 +5°C° 0 mm 2 mps 735 mmHg 73%
    08:00 +7°C° 0 mm 2 mps 736 mmHg 65%
    09:00 +9°C° 0 mm 2 mps 736 mmHg 58%
    10:00 +10°C° 0 mm 2 mps 736 mmHg 54%
    11:00 +12°C° 0 mm 3 mps 736 mmHg 49%
    12:00 +13°C° 0 mm 3 mps 736 mmHg 44%
    13:00 +14°C° 0 mm 3 mps 736 mmHg 45%
    14:00 +15°C° 0 mm 2 mps 735 mmHg 46%
    15:00 +15°C° 0 mm 2 mps 735 mmHg 47%
    16:00 +13°C° 0 mm 2 mps 735 mmHg 55%
    17:00 +10°C° 0 mm 2 mps 736 mmHg 63%
    18:00 +9°C° 0 mm 1 mps 736 mmHg 71%
    19:00 +8°C° 0 mm 1 mps 736 mmHg 74%
    20:00 +7°C° 0 mm 1 mps 736 mmHg 77%
    21:00 +7°C° 0 mm 1 mps 736 mmHg 79%
    22:00 +6°C° 0 mm 1 mps 736 mmHg 80%
    23:00 +6°C° 0 mm 1 mps 736 mmHg 80%
    Show more